Weather History for Miami, FL

Change the Weather History Date:

Thursday, December 19, 2013

  Actual Average Record
Temperature  
Mean Temperature 70 °F 70 °F  
Max Temperature 79 °F 78 °F 85 °F (1989)
Min Temperature 60 °F 62 °F 39 °F (1981)
Degree Days  
Heating Degree Days 0 1  
Month to date heating degree days 0 15  
Since 1 July heating degree days 2 18  
Cooling Degree Days 5 6  
Month to date cooling degree days 184 134  
Year to date cooling degree days 4725 4506  
Growing Degree Days 20 (Base 50)    
Moisture  
Dew Point 59 °F    
Average Humidity 70    
Maximum Humidity 90    
Minimum Humidity 50    
Precipitation  
Precipitation 0.00 in 0.07 in 1.75 in (1964)
Month to date precipitation 0.46 1.31  
Year to date precipitation 66.21 61.17  
Snow  
Snow 0.00 in - - ()
Month to date snowfall 0.0  
Since 1 July snowfall 0.0  
Snow Depth 0.00 in    
Sea Level Pressure  
Sea Level Pressure 30.19 in    
Wind  
Wind Speed 9 mph (ENE)    
Max Wind Speed 21 mph    
Max Gust Speed 25 mph    
Visibility 10 miles    
Events      
T = Trace of Precipitation, MM = Missing Value Source: NWS Daily Summary

Daily Weather History Graph

Daily Weather History Graph

Search for Another Location

Airport:

Trip Planner

Search our weather history database for the weather conditions in past years. The results will help you decide how hot, cold, wet, or windy it might be!

Date:

Astronomy

Dec. 19, 2013 Rise Set
Actual Time 7:02 AM EST 5:34 PM EST
Civil Twilight 6:37 AM EST 5:59 PM EST
Nautical Twilight 6:08 AM EST 6:28 PM EST
Astronomical Twilight 5:40 AM EST 6:56 PM EST
Moon 7:47 PM EST (12/19) 8:30 AM EST (12/19)
Length of Visible Light 11h 22m
Length of Day
10h 31m
Waning Gibbous, 95% of the Moon is Illuminated
Dec 19
Waning Gibbous
Dec 25
Last Quarter
Jan 1
New
Jan 7
First Quarter
Jan 15
Full

Hourly Weather History & Observations

Time (EST) Temp. Dew Point Humidity Pressure Visibility Wind Dir Wind Speed Gust Speed Precip Events Conditions
12:53 AM 63.0 °F 55.0 °F 75% 30.22 in 10.0 mi North 4.6 mph - N/A   Partly Cloudy
1:53 AM 63.0 °F 55.9 °F 78% 30.21 in 10.0 mi NNW 3.5 mph - N/A   Partly Cloudy
2:53 AM 62.1 °F 55.9 °F 80% 30.20 in 10.0 mi NNW 3.5 mph - N/A   Clear
3:53 AM 62.1 °F 57.0 °F 84% 30.19 in 10.0 mi NNW 3.5 mph - N/A   Clear
4:53 AM 61.0 °F 55.9 °F 83% 30.20 in 10.0 mi Calm Calm - N/A   Partly Cloudy
5:53 AM 61.0 °F 57.0 °F 87% 30.20 in 10.0 mi NNW 3.5 mph - N/A   Partly Cloudy
6:53 AM 61.0 °F 57.0 °F 87% 30.21 in 10.0 mi North 3.5 mph - N/A   Partly Cloudy
7:53 AM 63.0 °F 57.9 °F 84% 30.22 in 10.0 mi Calm Calm - N/A   Partly Cloudy
8:53 AM 70.0 °F 59.0 °F 68% 30.23 in 10.0 mi NE 4.6 mph - N/A   Scattered Clouds
9:53 AM 75.0 °F 59.0 °F 57% 30.24 in 10.0 mi ENE 10.4 mph 19.6 mph N/A   Scattered Clouds
10:53 AM 77.0 °F 60.1 °F 56% 30.24 in 10.0 mi East 17.3 mph 21.9 mph N/A   Mostly Cloudy
11:53 AM 78.1 °F 59.0 °F 52% 30.22 in 10.0 mi East 17.3 mph 20.7 mph N/A   Mostly Cloudy
12:53 PM 78.1 °F 60.1 °F 54% 30.19 in 10.0 mi East 17.3 mph - N/A   Scattered Clouds
1:53 PM 78.1 °F 59.0 °F 52% 30.17 in 10.0 mi East 16.1 mph - N/A   Mostly Cloudy
2:53 PM 77.0 °F 57.9 °F 52% 30.16 in 10.0 mi ENE 11.5 mph - N/A   Scattered Clouds
3:53 PM 75.9 °F 59.0 °F 56% 30.15 in 10.0 mi ENE 11.5 mph 21.9 mph N/A   Scattered Clouds
4:53 PM 75.0 °F 59.0 °F 57% 30.16 in 10.0 mi East 12.7 mph - N/A   Scattered Clouds
5:53 PM 75.0 °F 60.1 °F 60% 30.17 in 10.0 mi ENE 9.2 mph - N/A   Partly Cloudy
6:53 PM 75.0 °F 60.1 °F 60% 30.17 in 10.0 mi East 10.4 mph - N/A   Partly Cloudy
7:53 PM 73.0 °F 60.1 °F 64% 30.18 in 10.0 mi East 9.2 mph - N/A   Partly Cloudy
8:53 PM 73.9 °F 61.0 °F 64% 30.19 in 10.0 mi East 11.5 mph - N/A   Partly Cloudy
9:53 PM 73.0 °F 62.1 °F 68% 30.19 in 10.0 mi East 11.5 mph - N/A   Partly Cloudy
10:53 PM 72.0 °F 63.0 °F 73% 30.18 in 10.0 mi East 9.2 mph - N/A   Clear
11:53 PM 71.1 °F 64.0 °F 78% 30.17 in 10.0 mi East 6.9 mph - N/A   Clear